EHI
0 0 0 0 0 0 0 0 0 0 0 0 0 0 0 0 0 0 1 3 11 17 17 18 20 21 20 21 22 21 20 17 15 13 9 5 2 1 0 0 0 0 0 0 0 0 0 0 0
0 0 0 0 0 0 0 0 0 1 1 2 1 1 0 0 0 1 1 5 14 20 17 17 22 23 22 24 25 23 20 16 13 10 7 3 1 0 0 0 0 0 0 0 0 0 0 0 0
0 0 0 0 0 0 0 0 1 3 4 5 4 3 1 0 1 2 3 10 19 20 16 18 25 27 25 27 27 23 18 13 10 8 5 2 0 0 0 0 0 0 0 0 0 0 0 0 0
0 0 0 0 0 0 0 0 2 5 6 7 7 5 2 0 2 6 12 20 25 21 16 22 31 32 28 27 26 22 16 11 8 7 5 1 0 0 0 0 0 0 0 0 0 0 0 0 0
0 0 0 0 0 0 0 1 4 7 8 8 8 7 3 2 6 15 23 29 32 28 21 27 38 38 30 26 25 22 16 10 7 5 3 1 0 0 0 0 0 0 0 0 0 0 0 0 0
0 0 0 0 0 0 1 2 5 8 10 10 10 8 6 5 12 23 28 31 36 39 33 32 38 36 27 23 24 22 16 10 6 4 1 0 0 0 0 0 0 0 0 0 0 0 0 0 0
0 0 0 0 0 0 1 2 5 9 12 13 13 12 10 12 19 29 34 36 41 47 44 38 33 29 24 20 20 19 15 9 5 3 1 0 0 0 0 0 0 0 0 0 0 0 0 0 0
0 0 0 0 0 0 0 1 4 10 15 16 14 14 18 26 35 43 46 46 49 50 47 41 34 28 22 18 16 16 13 8 5 4 2 1 0 0 0 0 0 0 0 0 0 0 0 0 0
0 0 0 0 0 0 0 1 3 10 17 18 15 19 35 52 59 59 57 55 54 49 43 40 38 32 25 19 15 13 10 7 5 4 2 1 0 0 0 0 0 0 0 0 0 0 0 0 0
0 0 0 0 0 0 0 1 3 9 15 18 21 35 59 73 71 65 60 57 54 49 42 37 37 35 30 22 16 13 10 6 6 5 3 1 0 0 0 0 0 0 0 0 0 0 0 0 0
0 0 0 0 0 0 0 1 3 6 8 16 31 54 73 77 69 61 56 52 51 50 44 38 37 36 32 25 20 16 12 8 7 5 3 1 0 0 0 0 0 0 0 0 0 0 0 0 0
0 0 0 0 0 0 1 1 2 3 5 16 39 63 76 74 63 55 50 45 46 50 47 41 39 37 32 26 22 19 14 10 8 5 2 1 0 0 0 0 0 0 0 0 0 0 0 0 0
0 0 0 0 0 0 1 2 1 2 8 23 45 65 74 69 58 50 44 41 43 48 48 45 41 38 32 27 23 19 14 10 7 4 2 0 0 0 0 0 0 0 0 0 0 0 0 0 0
0 0 0 0 0 0 1 2 1 4 15 32 50 64 69 65 57 51 45 39 39 43 45 44 43 38 32 28 23 19 15 11 8 5 3 1 1 1 0 0 0 0 0 0 0 0 0 0 0
0 0 0 1 1 1 0 1 2 8 21 38 52 61 63 59 55 53 49 41 37 39 41 42 42 37 31 26 21 17 14 11 8 5 4 3 2 1 0 0 0 0 0 0 0 0 0 0 0
0 0 0 1 1 1 0 1 3 10 23 37 48 54 54 51 51 51 48 43 40 39 38 39 40 35 28 22 18 15 13 9 6 4 3 3 2 1 0 0 0 0 0 0 0 0 0 0 0
0 0 0 0 0 0 0 0 3 11 22 31 39 44 46 45 45 44 44 44 44 41 39 37 35 32 26 22 18 14 11 7 4 3 1 1 1 1 0 0 0 0 0 0 0 0 0 0 0
0 0 0 0 0 0 0 0 3 9 17 22 26 32 38 39 36 35 39 44 45 45 42 35 30 26 24 22 17 12 8 5 3 2 1 0 0 0 0 1 0 0 0 0 0 0 0 0 0
0 0 0 0 0 0 0 1 3 6 11 15 18 25 31 29 25 27 36 43 46 47 44 36 29 25 23 21 17 11 7 4 3 2 1 1 0 0 0 0 0 0 0 0 0 0 0 0 0
0 0 0 0 1 1 1 1 2 4 7 11 14 20 25 23 20 24 33 42 46 46 43 39 34 29 25 20 16 10 6 3 2 2 2 2 1 0 0 0 0 0 0 0 0 0 0 0 0
0 0 0 0 1 2 2 1 1 2 5 8 11 15 19 20 21 25 32 40 45 45 43 41 37 31 26 21 16 10 7 4 2 2 2 2 1 0 0 0 0 0 0 0 0 0 0 0 0
0 0 0 0 0 1 1 1 0 1 3 7 10 12 13 16 21 27 31 37 43 45 43 41 38 33 29 24 17 13 10 5 2 1 1 1 0 0 0 0 0 0 0 0 0 0 0 0 0
0 0 0 0 0 0 0 0 0 1 2 5 9 11 11 13 19 26 30 35 40 42 41 39 37 35 32 26 19 14 10 6 3 1 0 0 0 0 0 0 0 0 0 0 0 1 0 0 0
0 0 0 0 0 0 0 0 0 0 1 2 4 7 8 9 15 22 26 31 36 37 37 37 36 35 33 26 19 13 8 6 4 2 1 1 1 0 0 0 0 0 0 0 0 0 0 0 0
0 0 0 0 0 0 0 0 0 0 0 0 1 3 6 7 11 18 22 27 33 35 34 34 32 32 30 26 19 11 6 4 3 3 3 3 2 1 0 0 0 0 0 0 0 0 0 0 0
0 0 0 0 0 0 0 0 0 0 0 0 0 1 5 8 11 15 20 25 30 32 31 27 25 25 25 24 18 10 4 2 2 2 3 3 3 2 2 1 0 0 0 0 0 0 0 0 0
0 0 0 0 0 0 0 0 0 0 0 0 0 1 4 8 11 13 16 21 26 27 24 20 18 18 20 18 13 8 4 1 0 1 2 2 3 3 2 2 1 0 0 0 0 0 0 0 0
0 0 0 0 0 0 0 0 0 0 0 0 0 0 2 6 10 10 10 14 19 19 16 14 13 14 14 12 9 6 5 2 0 0 0 1 2 3 2 2 2 0 0 0 0 0 0 0 0
0 0 0 0 0 0 0 0 0 0 0 0 0 0 1 4 8 7 6 8 11 10 9 9 9 9 9 8 6 6 5 2 0 0 0 0 1 2 3 2 1 0 0 0 0 0 0 0 0
0 0 0 0 0 0 0 0 0 0 0 0 0 0 1 4 6 6 5 6 6 6 6 5 6 6 7 6 5 4 4 2 0 0 0 0 0 1 3 2 1 0 0 0 0 0 0 0 0
Wind_Speed
5 4 2 1 3 4 2 2 1 0 2 3 5 4 5 4 3 3 3 13 17 15 12 15 17 17 17 17 17 17 17 17 16 16 15 15 14 14 13 13 12 12 13 13 13 13 13 14 14
4 4 1 2 4 3 3 2 0 1 2 4 4 4 4 3 4 7 7 11 17 15 11 13 18 18 17 17 16 16 16 16 16 15 15 14 14 13 13 13 12 12 13 13 13 13 13 13 13
5 2 3 3 3 2 1 1 1 2 2 2 3 4 3 4 7 7 7 14 15 13 10 13 20 18 17 17 16 16 16 15 15 14 14 14 13 13 12 12 12 12 12 13 13 13 13 13 13
3 2 3 4 0 3 3 3 2 2 1 2 4 4 4 3 6 8 15 16 15 12 10 13 19 18 17 17 16 15 15 15 14 14 13 13 13 12 12 12 12 12 12 12 12 12 12 12 12
3 4 4 2 3 4 4 4 4 4 1 1 3 4 3 4 8 16 16 16 15 11 9 12 19 18 18 17 16 15 15 14 14 13 13 12 12 12 11 11 11 11 12 12 12 12 12 11 10
4 4 4 1 4 4 2 2 3 2 2 2 3 4 2 3 11 15 15 13 13 13 10 11 18 18 17 17 16 15 14 14 13 13 12 12 12 11 11 11 11 11 11 11 11 11 10 10 9
4 4 2 2 3 3 1 1 3 3 3 2 4 5 3 5 8 12 12 11 10 10 9 8 10 13 16 16 15 15 14 14 13 13 12 12 11 11 10 10 10 10 10 10 10 10 9 8 8
4 4 1 1 2 3 2 1 1 2 2 3 4 7 6 8 11 11 11 10 10 8 8 8 8 7 8 9 15 15 14 14 13 12 12 11 11 11 10 9 9 10 10 9 9 9 8 8 8
4 4 2 4 3 3 1 1 1 1 3 2 2 3 7 17 16 14 12 9 9 10 7 7 8 7 7 6 11 12 13 13 12 10 12 9 4 5 5 7 9 9 9 8 8 8 7 7 6
4 3 6 5 4 3 2 1 2 2 2 1 2 5 15 18 18 18 17 16 14 13 10 7 8 8 7 7 6 4 4 5 5 4 5 4 4 3 5 5 8 8 8 8 7 7 7 5 3
5 6 5 5 5 3 2 2 3 5 5 7 9 14 18 19 17 16 16 15 14 13 12 9 8 8 7 5 5 3 2 3 4 5 5 4 3 3 3 2 2 3 4 3 4 4 3 3 3
4 6 5 4 3 2 3 2 2 6 8 6 11 18 20 20 18 17 17 15 13 13 12 10 9 8 7 5 5 4 3 3 3 4 5 4 3 2 2 2 2 2 2 2 2 2 2 3 3
4 4 4 6 5 4 3 4 3 5 4 5 12 16 18 18 17 13 11 12 12 13 12 11 10 9 7 6 5 5 4 4 4 4 4 4 3 3 2 2 2 2 2 2 2 2 2 2 3
4 4 5 5 3 2 2 2 2 5 3 8 13 15 16 16 15 13 12 12 13 13 12 11 11 10 8 6 5 5 4 4 4 4 4 5 4 3 3 2 2 2 2 2 2 2 2 1 2
2 2 5 3 1 1 2 2 3 3 6 9 11 13 14 12 13 15 15 14 14 13 12 12 11 9 9 8 7 5 5 5 4 4 5 5 4 4 4 3 2 2 2 2 2 2 2 2 2
2 2 2 5 1 0 4 4 5 2 7 8 9 10 10 9 11 11 12 11 12 12 12 12 12 11 10 8 6 5 5 5 4 4 4 6 5 5 4 3 3 3 2 2 2 2 2 1 2
4 1 1 5 2 1 2 4 4 2 6 7 8 8 8 8 8 9 11 12 12 12 13 12 10 11 10 8 6 5 5 5 4 4 4 5 6 6 4 4 3 3 3 3 3 2 2 2 2
2 1 2 3 3 2 1 4 4 1 4 5 5 6 7 8 9 9 9 11 11 11 11 11 10 9 8 6 5 4 4 4 4 4 5 6 5 6 5 4 4 4 3 3 2 3 2 2 2
3 2 4 5 3 1 2 3 4 1 2 3 4 5 6 6 5 6 8 10 10 10 11 12 10 10 8 6 7 6 6 5 5 5 6 7 6 6 5 4 4 5 4 4 4 3 3 2 2
3 2 4 4 2 0 2 3 3 1 3 4 5 5 6 5 4 6 8 9 11 12 12 12 12 11 10 8 6 4 4 3 4 4 5 6 7 7 6 5 5 5 4 4 4 4 3 2 2
4 5 4 3 4 3 1 4 3 3 1 1 3 4 5 7 8 8 8 9 10 12 13 13 12 11 10 8 5 4 3 3 3 4 4 6 7 7 6 6 5 5 5 5 5 5 5 3 2
5 6 5 2 1 3 1 2 6 3 2 2 3 4 4 5 5 6 8 9 11 11 10 10 10 10 10 10 9 9 7 6 6 5 5 5 7 8 7 7 6 6 5 5 6 5 4 5 3
6 1 2 1 3 0 2 2 7 3 3 5 4 5 5 5 5 6 7 8 8 8 8 8 9 9 10 11 11 10 8 5 4 4 6 5 5 7 7 7 7 6 5 6 6 5 5 4 4
4 5 6 6 5 0 2 2 6 4 5 5 4 4 4 4 5 5 5 5 6 7 7 8 9 9 10 10 10 10 10 9 7 7 7 6 4 5 7 7 7 7 6 6 6 6 6 5 4
5 6 4 4 3 4 2 2 8 6 5 5 5 4 3 3 4 4 5 6 7 7 7 7 9 8 8 10 10 10 10 10 10 9 8 7 5 5 7 7 7 6 6 6 6 6 6 6 5
6 10 9 6 5 4 1 4 7 4 3 3 2 2 2 2 3 4 5 6 7 8 8 7 8 7 8 9 9 8 8 7 6 8 7 7 6 6 7 8 7 7 6 6 6 5 5 5 5
7 4 7 8 3 1 4 5 7 2 2 1 1 1 1 2 3 4 4 5 6 7 7 7 7 6 7 7 7 6 6 6 6 6 6 5 5 6 7 8 7 7 7 6 6 5 6 5 6
6 9 6 7 6 2 3 4 5 5 3 1 1 1 1 1 2 2 3 4 5 5 5 5 6 6 5 6 6 5 5 6 5 5 6 7 7 6 7 7 7 7 6 6 6 5 5 6 5
5 4 6 5 6 7 3 7 6 6 4 3 2 1 2 2 2 2 2 3 4 4 5 5 5 5 5 5 4 4 5 5 5 5 6 6 6 7 7 7 7 7 7 6 6 6 6 7 6
5 7 8 7 4 5 5 8 3 3 2 2 2 0 2 2 2 3 3 3 4 4 4 4 4 5 5 5 4 4 4 4 5 5 5 6 6 6 6 6 6 6 6 6 7 7 7 7 7
Wind_Direction
166 140 138 111 54 45 351 291 264 89 127 145 146 144 141 144 169 179 127 140 136 142 148 147 144 139 135 131 128 126 126 126 126 126 126 126 126 125 124 124 121 119 117 115 113 113 114 115 116
139 147 123 65 73 52 327 304 323 316 133 113 102 94 96 85 82 109 129 143 139 143 145 147 146 143 139 135 133 131 130 129 129 129 128 128 128 127 126 124 122 120 118 117 116 115 116 117 118
151 161 94 70 86 162 252 291 125 55 91 106 98 77 92 125 129 138 145 142 137 141 143 153 149 146 143 140 137 136 134 132 132 132 131 131 130 128 126 125 124 122 121 120 119 117 118 119 119
130 65 58 69 186 231 224 233 160 117 26 45 109 88 69 85 140 141 139 142 139 141 144 155 151 149 147 145 143 140 138 136 135 135 134 133 132 130 129 127 125 124 123 121 120 119 119 121 122
70 80 60 30 277 257 242 232 179 149 161 99 113 104 59 23 112 132 140 145 144 141 146 155 153 152 151 150 148 145 143 141 140 138 137 136 133 132 131 129 128 126 123 122 120 120 121 122 123
62 68 77 321 285 274 257 216 150 132 124 108 116 104 65 103 126 140 143 144 145 145 147 153 157 156 155 155 153 151 149 147 146 144 141 140 137 135 134 131 129 127 125 123 120 120 121 120 124
107 101 145 229 284 301 310 111 151 156 147 169 137 114 114 133 139 139 138 137 141 145 146 151 156 158 160 159 158 156 155 153 151 149 146 144 142 140 137 134 132 131 129 126 126 126 125 123 125
130 105 118 246 242 272 307 49 129 148 149 119 125 147 171 162 141 130 129 134 141 145 149 149 148 149 153 160 162 161 160 159 156 152 150 150 147 144 142 136 137 136 134 132 132 131 128 124 126
104 80 213 223 209 249 262 31 320 89 117 121 128 165 156 142 140 138 139 142 152 157 156 152 149 145 144 153 168 164 164 163 160 157 156 148 124 125 133 142 144 141 140 138 136 134 129 119 117
108 154 226 223 212 231 259 217 210 136 147 145 95 103 132 145 152 156 160 164 169 170 168 160 153 149 149 163 156 150 153 151 141 133 131 116 113 126 135 156 151 147 145 141 138 132 119 101 89
166 202 232 242 232 231 252 252 205 162 211 205 180 154 152 158 164 169 170 172 174 172 172 167 161 156 156 152 144 138 128 129 129 130 126 122 115 116 113 114 130 124 125 104 109 101 96 104 106
193 242 236 258 239 225 219 224 214 199 221 200 168 159 161 168 174 177 176 174 171 172 177 170 166 162 160 151 149 143 140 140 139 140 137 132 128 127 128 121 106 90 89 100 94 98 107 114 122
226 264 254 251 269 237 217 222 215 246 243 140 147 158 169 176 179 180 176 172 170 175 176 174 172 170 162 153 158 157 154 154 150 145 148 147 148 153 150 142 123 120 109 114 110 109 117 120 129
230 248 280 287 277 236 191 251 190 255 163 141 155 169 177 181 179 173 172 174 177 178 177 175 178 175 166 165 164 160 159 155 153 159 165 161 159 161 162 164 153 148 141 136 133 134 133 129 133
271 303 320 304 277 245 124 319 245 239 144 153 167 176 180 183 182 184 182 180 180 178 175 177 180 175 174 171 171 166 165 161 167 172 172 172 172 171 168 171 174 174 154 139 125 116 111 129 134
21 41 332 300 312 298 126 252 272 162 149 166 173 178 183 190 193 190 183 180 178 173 176 180 184 179 181 175 171 167 169 168 174 174 175 180 180 175 169 175 187 173 151 146 142 132 124 127 135
28 47 284 304 329 45 119 252 283 167 159 172 180 182 183 188 194 191 183 181 179 178 178 179 182 180 182 177 172 170 168 173 175 175 176 181 182 179 175 180 182 164 154 159 167 140 140 151 151
213 212 284 282 299 2 304 267 289 214 170 178 180 181 184 194 201 188 180 179 178 179 178 179 180 177 174 169 162 159 165 175 174 179 182 179 184 183 177 177 174 161 155 161 159 135 118 127 145
170 203 269 267 280 302 272 277 280 227 176 180 187 187 192 201 200 183 181 178 176 177 178 181 181 178 173 174 176 178 185 185 184 187 187 185 184 179 177 181 173 169 172 174 162 138 132 121 120
193 249 273 296 338 88 279 287 288 234 209 199 197 197 194 191 195 194 184 179 181 184 183 182 185 180 180 184 180 174 167 177 184 184 187 186 183 180 185 177 178 177 169 166 167 149 138 138 147
218 210 233 263 341 7 32 328 313 304 318 224 204 197 192 194 197 196 189 186 183 187 188 187 186 181 180 175 163 152 138 130 166 183 191 192 187 186 183 179 177 180 177 179 180 168 156 157 160
244 223 206 228 57 300 33 287 291 298 304 246 228 211 211 206 200 198 192 187 188 192 188 183 182 180 179 176 177 179 180 188 191 183 187 189 186 186 184 179 183 182 181 183 185 177 166 153 162
214 182 159 169 155 335 356 169 282 315 279 260 244 219 213 207 203 204 198 190 183 179 179 180 180 184 183 182 185 188 191 193 173 168 177 186 188 191 186 182 185 185 188 188 182 171 173 169 168
169 77 55 49 76 9 258 171 273 254 240 258 243 223 219 207 202 202 189 170 165 168 171 177 183 188 183 183 188 190 190 185 175 181 185 190 190 191 192 188 188 188 186 185 184 180 180 181 175
127 100 44 13 24 251 272 188 251 253 241 239 245 236 226 208 193 189 176 170 167 168 171 176 180 186 182 185 192 195 192 188 191 190 191 188 188 194 197 191 189 188 188 185 180 181 187 184 184
172 144 155 178 204 261 313 233 256 266 263 251 231 216 198 197 188 191 190 177 172 173 173 174 180 184 182 188 194 194 189 190 196 196 193 195 196 196 189 190 189 189 187 187 181 185 192 188 193
141 172 160 129 139 120 280 283 300 290 312 7 124 131 170 187 179 179 183 178 175 174 174 176 177 178 180 185 185 183 185 190 194 192 193 196 197 194 188 188 187 189 188 187 183 191 195 189 197
141 143 110 123 143 199 279 274 253 272 274 247 192 197 198 145 128 144 171 174 169 165 162 159 163 172 174 178 183 181 182 189 193 189 195 198 196 191 183 186 188 189 189 187 186 193 196 190 198
115 106 108 111 145 151 204 261 229 225 230 224 226 207 180 150 148 152 145 139 138 139 147 152 159 158 163 174 178 179 183 186 186 194 201 199 192 186 186 185 186 190 190 187 191 201 194 195 197
145 153 143 145 182 160 163 257 272 213 218 191 200 179 145 137 132 139 138 129 131 139 148 155 164 166 171 172 172 175 176 176 185 196 199 193 188 185 184 179 183 191 192 188 192 203 198 194 196